User: anonymous   Login
Location: Unspecified
(0.0000°N, 0.0000°E)
Time: 20:45:05
(UTC+00:00)
Language:

STARLINK-34488 - Orbit

View from above orbital plane
View from above orbital plane
View from above satellite
View from above satellite

Ground track
Ground track

The orbit is defined by the following mean orbital elements,

1 64604U          26144.95545329 +.00000000 +00000-0 +99390-3 0 00005
2 64604  53.1596 340.8394 0000992  84.1912 275.9202 15.30203330    04
Epoch (UTC): 24 May 2026 22:55:51
Eccentricity: 0.0000992
inclination: 53.1596°
perigee height: 475 km
apogee height: 476 km
right ascension of ascending node: 340.8394°
argument of perigee: 84.1912°
revolutions per day: 15.30203330
mean anomaly at epoch: 275.9202°

The dashed part of the orbit path shows where the satellite is in the earth's shadow,  

DLR